Regional Weather Roundup
Issued by NWS Cleveland, OH

Home | Current Version | Previous Version | Text Only | Print | Product List | Glossary On
Versions: 1 2 3 4 5 6 7 8 9 10 11 12 13 14 15 16 17 18 19 20 21 22 23 24 25 26 27 28 29 30 31 32 33 34 35 36 37 38 39 40 41 42 43 44 45 46 47 48 49 50
000
ASUS41 KCLE 170812
RWRCLE
OHIO REGIONAL WEATHER ROUNDUP
NATIONAL WEATHER SERVICE WILMINGTON, OH
400 AM EDT TUE OCT 17 2017

NOTE: "FAIR" INDICATES FEW OR NO CLOUDS BELOW 12,000 FEET WITH NO
SIGNIFICANT WEATHER AND/OR OBSTRUCTIONS TO VISIBILITY.

OHZ001>008-015>018-024>027-034-035-043-044-170900-
   NORTHWEST OHIO

CITY           SKY/WX    TMP DP  RH WIND       PRES   REMARKS
DEFIANCE       FAIR      42  36  79 SW3       30.27S
FINDLAY        FAIR      41  36  82 S7        30.27F
TOLEDO EXPRESS FAIR      43  41  93 S6        30.25F
TOLEDO EXEC    FAIR      44  39  82 S7        30.27S
LIMA           FAIR      42  38  85 S7        30.28F
$$

OHZ009>014-019>023-028>033-038-089-170900-
   NORTHEAST OHIO

CITY           SKY/WX    TMP DP  RH WIND       PRES   REMARKS
CLE-HOPKINS    FAIR      41  35  79 S6        30.30F
CLE-LAKEFRONT  FAIR      45  35  68 SE13      30.27F
CUY CO. ARPT   NOT AVBL
LORAIN-ELYRIA    N/A    N/A N/A N/A MISG      30.29S
ASHTABULA      FAIR      37  34  89 S3        30.29F
AKRON-CANTON   FAIR      40  34  79 S5        30.30S
WOOSTER        FAIR      34  32  92 CALM      30.31S
MANSFIELD      FAIR      39  36  89 S5        30.29S
YOUNGSTOWN     FAIR      37  32  82 CALM      30.29S
$$

OHZ042-051>053-060>062-070>072-077>081-170900-
  SOUTHWEST OHIO

CITY           SKY/WX    TMP DP  RH WIND       PRES   REMARKS
CINC-COVINGTON FAIR      40  40 100 CALM      30.32R
CINC-LUNKEN    FOG       42  42 100 CALM      30.34S VSB 1
HAMILTON       FAIR      36  35  96 CALM      30.33S
DAYTON         FAIR      45  40  82 SW8       30.31S
WRIGHT-PAT AFB CLEAR     39  39 100 CALM      30.31F
DAYTON GENERAL FAIR      42  36  79 CALM      30.31S
WILMINGTON     FAIR      41  38  89 CALM      30.32S
$$

OHZ036-037-039>041-045>050-054>059-063>069-073>076-082>088-170900-
  CENTRAL AND SOUTHEAST OHIO

CITY           SKY/WX    TMP DP  RH WIND       PRES   REMARKS
COLUMBUS       FAIR      41  39  93 SE3       30.31S
OSU AIRPORT    FAIR      41  41 100 CALM      30.31S
BOLTON FIELD   FAIR      38  37  95 SW3       30.32S
RICKENBACK AFB FAIR      39  39  99 CALM      30.31F
NEWARK         FAIR      38  35  89 CALM      30.32R
MARION         FAIR      40  36  86 S7        30.30S
LANCASTER      FAIR      36  35  96 CALM      30.32S
ZANESVILLE     FAIR      38  35  89 CALM      30.32S
NEW PHILLY     FAIR      38  35  89 CALM      30.32S
$$



USA.gov is the U.S. government's official web portal to all federal, state and local government web resources and services.